FW1404 Weather Reports


Display with metric or nautical units.
time (UTC)temp
F
wind
direction
speed
MPH
gust
MPH
rain 1hr
in
rain 24hr
in
rain mn
in
humidity
%
barometer
mb
20180722105838 80 9 8.0 13.0 0.00 0.00 0.00 45 1012.9
20180722105338 80 341 8.0 12.0 0.00 0.00 0.00 46 1012.9
20180722104837 79 347 6.0 12.0 0.00 0.00 0.00 46 1012.9
20180722104335 78 34 4.0 12.0 0.00 0.00 0.00 44 1012.9
20180722103837 79 37 6.0 12.0 0.00 0.00 0.00 46 1013.0
20180722103334 79 342 4.0 11.0 0.00 0.00 0.00 46 1013.0
20180722102837 78 355 5.0 16.0 0.00 0.00 0.00 46 1012.9
20180722102336 79 341 9.0 16.0 0.00 0.00 0.00 44 1013.0
20180722101837 79 359 5.0 12.0 0.00 0.00 0.00 45 1012.9
20180722101336 80 286 7.0 15.0 0.00 0.00 0.00 45 1013.0
20180722100835 79 318 7.0 15.0 0.00 0.00 0.00 45 1013.0
20180722100336 80 201 4.0 7.0 0.00 0.00 0.00 49 1012.8
20180722095836 79 359 2.0 14.0 0.00 0.00 0.00 45 1012.9
20180722095335 79 339 11.0 14.0 0.00 0.00 0.00 46 1012.9
20180722094835 80 313 5.0 13.0 0.00 0.00 0.00 49 1012.9
20180722094335 78 232 3.0 13.0 0.00 0.00 0.00 49 1012.9
20180722093834 78 253 5.0 13.0 0.00 0.00 0.00 48 1013.0
20180722093335 78 347 5.0 10.0 0.00 0.00 0.00 47 1013.1
20180722092838 78 286 3.0 12.0 0.00 0.00 0.00 47 1013.1
20180722092338 77 330 3.0 12.0 0.00 0.00 0.00 48 1013.1
20180722091838 77 5 4.0 11.0 0.00 0.00 0.00 48 1013.0
20180722091338 77 283 3.0 10.0 0.00 0.00 0.00 46 1013.0
20180722090838 77 283 6.0 10.0 0.00 0.00 0.00 47 1013.1
20180722090337 76 342 4.0 10.0 0.00 0.00 0.00 48 1013.0
20180722085833 75 331 7.0 10.0 0.00 0.00 0.00 50 1013.1
20180722085334 76 2 5.0 7.0 0.00 0.00 0.00 49 1013.1
20180722084834 76 323 3.0 10.0 0.00 0.00 0.00 46 1013.0
20180722084334 77 323 6.0 10.0 0.00 0.00 0.00 50 1013.1
20180722083834 77 12 3.0 7.0 0.00 0.00 0.00 50 1013.1
20180722083337 76 344 4.0 11.0 0.00 0.00 0.00 50 1013.1
20180722082836 76 9 7.0 13.0 0.00 0.00 0.00 49 1013.1
20180722082336 75 335 7.0 13.0 0.00 0.00 0.00 49 1013.1
20180722081837 76 358 6.0 9.0 0.00 0.00 0.00 53 1013.1
20180722081336 75 325 2.0 9.0 0.00 0.00 0.00 53 1013.1
20180722080833 74 342 4.0 9.0 0.00 0.00 0.00 56 1013.1
20180722080333 74 356 2.0 12.0 0.00 0.00 0.00 58 1013.1
20180722075832 73 314 8.0 12.0 0.00 0.00 0.00 56 1013.0
20180722075333 74 347 8.0 10.0 0.00 0.00 0.00 56 1013.1
20180722074837 73 287 5.0 9.0 0.00 0.00 0.00 56 1013.0
20180722074333 73 8 4.0 9.0 0.00 0.00 0.00 56 1013.0
20180722073847 72 8 6.0 9.0 0.00 0.00 0.00 58 1013.1
20180722073333 72 344 6.0 7.0 0.00 0.00 0.00 60 1013.1
20180722072832 71 3 4.0 6.0 0.00 0.00 0.00 61 1013.0
20180722072330 71 18 3.0 5.0 0.00 0.00 0.00 63 1013.0
20180722071832 70 335 3.0 5.0 0.00 0.00 0.00 63 1012.9
20180722071332 70 20 3.0 5.0 0.00 0.00 0.00 63 1013.0
20180722070831 69 49 3.0 5.0 0.00 0.00 0.00 65 1012.9
20180722070335 69 317 1.0 2.0 0.00 0.00 0.00 66 1012.9
20180722065833 68 306 1.0 2.0 0.00 0.00 0.00 67 1012.9
20180722065333 68 293 2.0 3.0 0.00 0.00 0.00 67 1012.8
20180722064831 67 323 0.0 3.0 0.00 0.00 0.00 69 1012.9
20180722064332 67 320 1.0 2.0 0.00 0.00 0.00 68 1012.9
20180722063831 66 318 1.0 2.0 0.00 0.00 0.00 70 1012.9
20180722063332 66 293 1.0 2.0 0.00 0.00 0.00 71 1012.8
20180722062831 66 293 0.0 2.0 0.00 0.00 0.00 70 1012.9
20180722062331 65 293 1.0 3.0 0.00 0.00 0.00 70 1012.9
20180722061834 65 293 2.0 3.0 0.00 0.00 0.00 70 1012.9
20180722061331 65 287 0.0 3.0 0.00 0.00 0.00 71 1012.9
20180722060829 65 284 2.0 3.0 0.00 0.00 0.00 71 1012.9
20180722060329 64 282 1.0 3.0 0.00 0.00 0.00 71 1012.9
20180722055829 64 299 2.0 3.0 0.00 0.00 0.00 72 1012.8
20180722055331 64 300 2.0 4.0 0.00 0.00 0.00 72 1012.8
20180722054829 63 296 2.0 4.0 0.00 0.00 0.00 72 1012.8
20180722054330 63 290 2.0 3.0 0.00 0.00 0.00 73 1012.7
20180722053830 62 304 2.0 4.0 0.00 0.00 0.00 74 1012.8
20180722053328 62 299 2.0 4.0 0.00 0.00 0.00 75 1012.7
20180722052828 62 293 1.0 3.0 0.00 0.00 0.00 75 1012.7
20180722052330 62 293 0.0 3.0 0.00 0.00 0.00 76 1012.7
20180722051830 61 304 0.0 4.0 0.00 0.00 0.00 75 1012.7
20180722051328 61 310 2.0 5.0 0.00 0.00 0.00 76 1012.6
20180722050829 61 300 3.0 4.0 0.00 0.00 0.00 76 1012.6
20180722050329 61 293 3.0 4.0 0.00 0.00 0.00 76 1012.6
20180722045829 60 311 2.0 4.0 0.00 0.00 0.00 77 1012.5
20180722045328 60 262 2.0 4.0 0.00 0.00 0.00 77 1012.5
20180722044829 60 303 2.0 4.0 0.00 0.00 0.00 80 1012.4
20180722044330 59 289 2.0 4.0 0.00 0.00 0.00 80 1012.4
20180722043827 59 272 1.0 2.0 0.00 0.00 0.00 80 1012.4
20180722043329 58 270 1.0 2.0 0.00 0.00 0.00 81 1012.4
20180722042829 58 259 0.0 2.0 0.00 0.00 0.00 81 1012.3
20180722042326 58 259 0.0 1.0 0.00 0.00 0.00 81 1012.3
20180722041827 58 259 1.0 1.0 0.00 0.00 0.00 82 1012.4
20180722041328 58 256 1.0 1.0 0.00 0.00 0.00 82 1012.3
20180722040828 58 258 1.0 1.0 0.00 0.00 0.00 83 1012.2
20180722040328 57 260 0.0 2.0 0.00 0.00 0.00 83 1012.2
20180722035828 57 262 1.0 3.0 0.00 0.00 0.00 84 1012.2
20180722035327 57 266 2.0 3.0 0.00 0.00 0.00 84 1012.2
20180722034829 57 342 2.0 2.0 0.00 0.00 0.00 84 1012.1
20180722034329 57 354 2.0 2.0 0.00 0.00 0.00 84 1012.1
20180722033829 57 354 1.0 2.0 0.00 0.00 0.00 84 1012.0
20180722033329 57 354 2.0 2.0 0.00 0.00 0.00 84 1011.9
20180722032828 57 359 1.0 1.0 0.00 0.00 0.00 84 1011.9
20180722032327 57 359 1.0 1.0 0.00 0.00 0.00 84 1011.8
20180722031827 57 359 1.0 2.0 0.00 0.00 0.00 84 1011.8
20180722031326 57 1 1.0 1.0 0.00 0.00 0.00 84 1011.8
20180722030829 57 359 0.0 2.0 0.00 0.00 0.00 84 1011.8
20180722030331 57 359 1.0 2.0 0.00 0.00 0.00 84 1011.8
20180722025830 57 1 1.0 2.0 0.00 0.00 0.00 84 1011.8
20180722025330 57 16 1.0 1.0 0.00 0.00 0.00 83 1011.8
20180722024829 57 16 1.0 1.0 0.00 0.00 0.00 83 1011.8
20180722024331 57 16 0.0 1.0 0.00 0.00 0.00 83 1011.7
20180722023824 57 16 1.0 1.0 0.00 0.00 0.00 82 1011.7
20180722023326 57 16 1.0 1.0 0.00 0.00 0.00 82 1011.7
20180722022824 57 16 0.0 1.0 0.00 0.00 0.00 82 1011.7
20180722022326 57 16 0.0 1.0 0.00 0.00 0.00 82 1011.7
20180722021829 57 16 0.0 2.0 0.00 0.00 0.00 82 1011.6
20180722021327 58 16 1.0 2.0 0.00 0.00 0.00 82 1011.7
20180722020828 58 16 1.0 2.0 0.00 0.00 0.00 82 1011.6
20180722020329 58 16 1.0 1.0 0.00 0.00 0.00 82 1011.5
20180722015828 58 16 0.0 0.0 0.00 0.00 0.00 81 1011.7
20180722015326 58 16 0.0 0.0 0.00 0.00 0.00 81 1011.7
20180722014824 58 16 0.0 0.0 0.00 0.00 0.00 81 1011.7
20180722014326 58 16 0.0 1.0 0.00 0.00 0.00 81 1011.7
20180722013824 58 16 0.0 0.0 0.00 0.00 0.00 80 1011.7
20180722013324 58 16 0.0 0.0 0.00 0.00 0.00 80 1011.7
20180722012828 58 16 0.0 0.0 0.00 0.00 0.00 79 1011.8
20180722012328 59 16 0.0 0.0 0.00 0.00 0.00 79 1011.8
20180722011827 59 16 0.0 0.0 0.00 0.00 0.00 79 1011.9
20180722011326 59 16 0.0 0.0 0.00 0.00 0.00 78 1011.9
20180722010824 59 16 0.0 0.0 0.00 0.00 0.00 77 1011.9
20180722010326 59 16 0.0 0.0 0.00 0.00 0.00 77 1011.9
20180722005825 60 16 0.0 0.0 0.00 0.00 0.00 77 1012.0
20180722005325 60 16 0.0 1.0 0.00 0.00 0.00 76 1012.0
20180722004823 60 16 0.0 1.0 0.00 0.00 0.00 76 1011.9
20180722004323 60 16 0.0 1.0 0.00 0.00 0.00 76 1012.0
20180722003824 60 16 0.0 1.0 0.00 0.00 0.00 76 1012.0
20180722003325 60 16 0.0 1.0 0.00 0.00 0.00 74 1011.9
20180722002824 61 16 0.0 1.0 0.00 0.00 0.00 74 1011.9
20180722002325 61 16 1.0 1.0 0.00 0.00 0.00 74 1011.8
20180722001824 61 16 1.0 2.0 0.00 0.00 0.00 74 1011.8
20180722001324 61 16 1.0 2.0 0.00 0.00 0.00 73 1011.8
20180722000822 61 16 1.0 2.0 0.00 0.00 0.00 73 1011.8
20180722000321 61 16 1.0 2.0 0.00 0.00 0.00 73 1011.8
20180721235824 62 18 1.0 2.0 0.00 0.00 0.00 72 1011.9
20180721235325 62 18 0.0 3.0 0.00 0.00 0.00 71 1012.0
20180721234826 62 18 1.0 3.0 0.00 0.00 0.00 71 1011.9
20180721234321 62 18 2.0 3.0 0.00 0.00 0.00 70 1011.9
20180721233820 62 18 1.0 3.0 0.00 0.00 0.00 70 1012.0
20180721233321 63 18 2.0 3.0 0.00 0.00 0.00 69 1012.1
20180721232821 63 13 2.0 3.0 0.00 0.00 0.00 69 1012.1
20180721232321 63 12 2.0 3.0 0.00 0.00 0.00 69 1012.1
20180721231820 63 13 0.0 1.0 0.00 0.00 0.00 69 1012.2
20180721231320 63 13 1.0 2.0 0.00 0.00 0.00 68 1012.3
20180721230819 64 13 1.0 4.0 0.00 0.00 0.00 68 1012.3
20180721230319 64 12 3.0 4.0 0.00 0.00 0.00 68 1012.3
20180721225819 64 25 2.0 4.0 0.00 0.00 0.00 68 1012.3
20180721225320 64 32 3.0 3.0 0.00 0.00 0.00 68 1012.4
20180721224819 64 18 1.0 3.0 0.00 0.00 0.00 68 1012.4
20180721224323 64 18 1.0 3.0 0.00 0.00 0.00 68 1012.4
20180721223820 64 34 2.0 3.0 0.00 0.00 0.00 68 1012.4
20180721223324 64 3 1.0 3.0 0.00 0.00 0.00 68 1012.4
20180721222819 64 12 2.0 2.0 0.00 0.00 0.00 69 1012.4
20180721222320 64 12 1.0 4.0 0.00 0.00 0.00 69 1012.4
20180721221818 64 12 2.0 4.0 0.00 0.00 0.00 68 1012.4
20180721221319 64 12 1.0 3.0 0.00 0.00 0.00 69 1012.4
20180721220820 64 8 1.0 2.0 0.00 0.00 0.00 68 1012.5
20180721220321 64 8 0.0 2.0 0.00 0.00 0.00 68 1012.4
20180721215821 65 8 0.0 2.0 0.00 0.00 0.00 68 1012.5
20180721215324 65 8 1.0 3.0 0.00 0.00 0.00 68 1012.4
20180721214822 65 8 1.0 3.0 0.00 0.00 0.00 67 1012.4
20180721214324 65 8 2.0 3.0 0.00 0.00 0.00 67 1012.4
20180721213822 65 26 1.0 2.0 0.00 0.00 0.00 66 1012.3
20180721213324 65 26 1.0 2.0 0.00 0.00 0.00 66 1012.5
20180721212819 66 26 1.0 2.0 0.00 0.00 0.00 66 1012.3
20180721212319 66 26 2.0 2.0 0.00 0.00 0.00 65 1012.3
20180721211818 67 27 1.0 1.0 0.00 0.00 0.00 65 1012.3
20180721211317 67 27 0.0 2.0 0.00 0.00 0.00 64 1012.2
20180721210819 67 27 1.0 2.0 0.00 0.00 0.00 62 1012.2
20180721210319 67 27 1.0 3.0 0.00 0.00 0.00 62 1012.1
20180721205819 67 29 2.0 3.0 0.00 0.00 0.00 62 1012.1
20180721205318 68 29 2.0 3.0 0.00 0.00 0.00 61 1012.1
20180721204817 68 26 2.0 3.0 0.00 0.00 0.00 61 1012.1
20180721204320 68 15 2.0 3.0 0.00 0.00 0.00 61 1012.1
20180721203821 68 19 2.0 4.0 0.00 0.00 0.00 60 1012.0
20180721203321 68 358 2.0 3.0 0.00 0.00 0.00 60 1012.0
20180721202818 69 12 1.0 4.0 0.00 0.00 0.00 59 1011.9
20180721202318 69 348 2.0 4.0 0.00 0.00 0.00 59 1011.9
20180721201818 69 354 2.0 5.0 0.00 0.00 0.00 58 1011.8
20180721201318 69 359 3.0 4.0 0.00 0.00 0.00 58 1011.8
20180721200818 69 359 4.0 6.0 0.00 0.00 0.00 58 1011.8
20180721200316 69 359 3.0 6.0 0.00 0.00 0.00 58 1011.8
20180721195816 69 342 4.0 5.0 0.00 0.00 0.00 58 1011.8
20180721195317 69 334 4.0 5.0 0.00 0.00 0.00 58 1011.7
20180721194817 69 354 2.0 4.0 0.00 0.00 0.00 58 1011.7
20180721194317 69 339 2.0 3.0 0.00 0.00 0.00 58 1011.6
20180721193817 70 344 1.0 3.0 0.00 0.00 0.00 58 1011.6
20180721193317 70 344 2.0 3.0 0.00 0.00 0.00 57 1011.5
20180721192817 71 331 0.0 2.0 0.00 0.00 0.00 55 1011.5
20180721192317 71 331 1.0 2.0 0.00 0.00 0.00 55 1011.4
20180721191816 71 339 1.0 2.0 0.00 0.00 0.00 55 1011.4
20180721191318 72 339 0.0 3.0 0.00 0.00 0.00 53 1011.3
20180721190820 72 347 1.0 3.0 0.00 0.00 0.00 53 1011.3
20180721190321 73 347 2.0 3.0 0.00 0.00 0.00 51 1011.3
20180721185818 73 5 2.0 2.0 0.00 0.00 0.00 51 1011.3
20180721185320 74 344 0.0 3.0 0.00 0.00 0.00 50 1011.2
20180721184819 74 344 1.0 4.0 0.00 0.00 0.00 49 1011.2
20180721184318 74 348 0.0 6.0 0.00 0.00 0.00 49 1011.2
20180721183817 74 359 1.0 7.0 0.00 0.00 0.00 47 1011.2
20180721183314 75 352 2.0 7.0 0.00 0.00 0.00 47 1011.2
20180721182814 75 355 3.0 5.0 0.00 0.00 0.00 47 1011.1
20180721182316 75 338 4.0 4.0 0.00 0.00 0.00 47 1011.1
20180721181816 75 339 3.0 4.0 0.00 0.00 0.00 47 1011.2
20180721181317 76 352 2.0 5.0 0.00 0.00 0.00 47 1011.3
20180721180816 76 342 4.0 7.0 0.00 0.00 0.00 46 1011.2
20180721180314 76 358 5.0 7.0 0.00 0.00 0.00 46 1011.3
20180721175816 76 348 4.0 7.0 0.00 0.00 0.00 45 1011.2
20180721175314 77 345 5.0 7.0 0.00 0.00 0.00 44 1011.2
20180721174813 77 349 4.0 9.0 0.00 0.00 0.00 43 1011.3
20180721174314 77 339 2.0 11.0 0.00 0.00 0.00 43 1011.1
20180721173814 77 349 6.0 11.0 0.00 0.00 0.00 43 1011.1
20180721173314 77 345 5.0 10.0 0.00 0.00 0.00 43 1011.1
20180721172812 77 334 4.0 10.0 0.00 0.00 0.00 43 1011.1
20180721172314 78 338 5.0 10.0 0.00 0.00 0.00 43 1011.1
20180721171814 78 317 4.0 13.0 0.00 0.00 0.00 42 1011.1
20180721171314 78 328 9.0 13.0 0.00 0.00 0.00 42 1011.1
20180721170814 78 348 4.0 10.0 0.00 0.00 0.00 43 1011.2
20180721170314 78 12 7.0 10.0 0.00 0.00 0.00 41 1011.1
20180721165814 78 356 4.0 10.0 0.00 0.00 0.00 42 1011.1
20180721165316 78 338 3.0 6.0 0.00 0.00 0.00 41 1011.1
20180721164816 78 339 2.0 11.0 0.00 0.00 0.00 41 1011.1
20180721164316 78 359 3.0 11.0 0.00 0.00 0.00 41 1011.2
20180721163813 79 358 9.0 12.0 0.00 0.00 0.00 40 1011.2
20180721163313 79 349 5.0 13.0 0.00 0.00 0.00 40 1011.2
20180721162811 80 348 8.0 12.0 0.00 0.00 0.00 40 1011.2
20180721162313 80 34 5.0 10.0 0.00 0.00 0.00 41 1011.3
20180721161812 80 13 4.0 7.0 0.00 0.00 0.00 41 1011.3
20180721161310 80 287 4.0 7.0 0.00 0.00 0.00 41 1011.3
20180721160812 80 315 3.0 5.0 0.00 0.00 0.00 40 1011.4
20180721160314 80 258 2.0 7.0 0.00 0.00 0.00 40 1011.3
20180721155814 80 354 3.0 7.0 0.00 0.00 0.00 40 1011.4
20180721155313 80 307 4.0 11.0 0.00 0.00 0.00 41 1011.3
20180721154813 80 327 7.0 11.0 0.00 0.00 0.00 39 1011.4
20180721154314 80 359 8.0 11.0 0.00 0.00 0.00 40 1011.4
20180721153810 80 354 4.0 12.0 0.00 0.00 0.00 39 1011.3
20180721153310 80 47 3.0 12.0 0.00 0.00 0.00 39 1011.3
20180721152811 81 10 7.0 10.0 0.00 0.00 0.00 39 1011.4
20180721152311 81 358 5.0 9.0 0.00 0.00 0.00 39 1011.4
20180721151809 81 328 4.0 15.0 0.00 0.00 0.00 37 1011.5
20180721151309 82 338 8.0 16.0 0.00 0.00 0.00 37 1011.4
20180721150811 82 348 9.0 10.0 0.00 0.00 0.00 38 1011.4
20180721150311 82 282 5.0 11.0 0.00 0.00 0.00 38 1011.4
20180721145811 82 306 3.0 11.0 0.00 0.00 0.00 37 1011.3
20180721145310 82 297 6.0 9.0 0.00 0.00 0.00 38 1011.4
20180721144811 81 315 4.0 9.0 0.00 0.00 0.00 38 1011.5
20180721144311 81 308 4.0 10.0 0.00 0.00 0.00 36 1011.5
20180721143808 81 273 5.0 16.0 0.00 0.00 0.00 36 1011.4
20180721143312 82 359 5.0 16.0 0.00 0.00 0.00 36 1011.4
20180721142811 83 2 8.0 12.0 0.00 0.00 0.00 35 1011.4
20180721142312 84 355 2.0 10.0 0.00 0.00 0.00 35 1011.4
20180721141810 84 358 5.0 11.0 0.00 0.00 0.00 36 1011.4
20180721141308 84 296 6.0 12.0 0.00 0.00 0.00 35 1011.3
20180721140810 84 279 4.0 12.0 0.00 0.00 0.00 38 1011.4
20180721140308 84 307 5.0 14.0 0.00 0.00 0.00 37 1011.3
20180721135809 83 269 4.0 15.0 0.00 0.00 0.00 37 1011.4
20180721135310 83 348 7.0 10.0 0.00 0.00 0.00 37 1011.5
20180721134812 84 347 4.0 10.0 0.00 0.00 0.00 37 1011.6
20180721134311 84 331 5.0 12.0 0.00 0.00 0.00 37 1011.4
20180721133812 82 325 8.0 14.0 0.00 0.00 0.00 39 1011.5
20180721133312 82 324 9.0 14.0 0.00 0.00 0.00 37 1011.5
20180721132811 83 13 5.0 9.0 0.00 0.00 0.00 38 1011.6
20180721132310 82 23 5.0 10.0 0.00 0.00 0.00 37 1011.6
20180721131811 83 349 6.0 11.0 0.00 0.00 0.00 37 1011.6
20180721131309 83 16 7.0 10.0 0.00 0.00 0.00 37 1011.7
20180721130811 83 5 6.0 10.0 0.00 0.00 0.00 38 1011.7
20180721130309 83 356 5.0 10.0 0.00 0.00 0.00 38 1011.7
20180721125811 83 9 7.0 12.0 0.00 0.00 0.00 38 1011.8
20180721125311 83 349 7.0 12.0 0.00 0.00 0.00 36 1011.7
20180721124807 84 352 5.0 9.0 0.00 0.00 0.00 38 1011.8
20180721124306 84 5 3.0 9.0 0.00 0.00 0.00 36 1011.8
20180721123807 84 67 2.0 10.0 0.00 0.00 0.00 37 1011.8
20180721123309 84 356 4.0 10.0 0.00 0.00 0.00 38 1011.8
20180721122808 84 320 6.0 10.0 0.00 0.00 0.00 38 1011.9
20180721122307 84 249 1.0 10.0 0.00 0.00 0.00 38 1011.9
20180721121811 84 229 4.0 10.0 0.00 0.00 0.00 38 1012.0
20180721121310 83 259 2.0 9.0 0.00 0.00 0.00 39 1012.0
20180721120808 84 354 3.0 6.0 0.00 0.00 0.00 38 1012.0
20180721120307 83 228 3.0 9.0 0.00 0.00 0.00 36 1012.1
20180721115807 84 232 4.0 11.0 0.00 0.00 0.00 36 1012.0
20180721115305 84 6 4.0 11.0 0.00 0.00 0.00 39 1012.1
20180721114807 83 328 3.0 11.0 0.00 0.00 0.00 36 1012.1
20180721114307 83 262 4.0 10.0 0.00 0.00 0.00 37 1012.1
20180721113805 83 356 4.0 7.0 0.00 0.00 0.00 38 1012.1
20180721113306 84 289 4.0 12.0 0.00 0.00 0.00 38 1012.1
20180721112809 83 352 3.0 12.0 0.00 0.00 0.00 36 1012.3
20180721112309 84 330 2.0 11.0 0.00 0.00 0.00 40 1012.2
20180721111809 83 339 4.0 11.0 0.00 0.00 0.00 40 1012.2
20180721111307 83 256 4.0 5.0 0.00 0.00 0.00 43 1012.2
20180721110809 83 259 2.0 13.0 0.00 0.00 0.00 45 1012.3